Погода в Монктоне

Канада     46°05′11″N   64°46′56″W
темп.,
°C
ветер,
м/с
пор.,
м/с
влажн.,
%
обл.,
%
осадки,
мм/ч
давл.,
гПа
погр.,
м
7 марта, вс
вс723:00−8зюз4118910 0.0 1014383
02:00−10з411885 0.0 1016387
05:00−12зюз38920 0.0 1018205
08:00−11з48890 0.0 1020353
11:00−6з47780 0.0 1021856
14:00−3з47755 0.0 1020980
17:00−4з367915 0.0 1020872
20:00−7з259155 0.0 1023166
8 марта, пн
пн823:00−9з369298 0.0 1023123
02:00−12з239462 0.0 102339
05:00−14з22940 0.0 102430
08:00−12зсз35920 0.0 1025207
11:00−6ссз238551 0.0 1025473
14:00−3с238475 0.1 1024615
17:00−3с2285100 0.1 1023555
20:00−5сз0192100 0.1 102521
9 марта, вт
вт923:00−7юз2291100 0.0 102523
02:00−8юз239293 0.0 102540
05:00−9зюз25933 0.0 102492
08:00−6юз39881 0.0 1023342
11:000юз488545 0.0 1021985
14:00+1юз379973 0.5 1020491
17:000зюз2698100 0.6 1019312
20:00−2з379797 1.1 1021255
10 марта, ср
ср1023:00−3зсз4109367 0.0 1023380
02:00−5зсз3109251 0.0 1025296
05:00−6з259523 0.0 1027114
08:00−5з359211 0.0 1030211
11:000зсз24915 0.0 1031351
14:00+4зюз247532 0.0 1030563
17:00+3юз248118 0.0 1029156
20:00−1ююз398835 0.0 1030195
11 марта, чт
чт1123:000юз4147764 0.0 1029376
02:00+1юз4148281 0.0 1027526
05:00+2юз41486100 0.0 1026477
08:00+3юз41390100 0.0 1025517
11:00+7юз61485100 0.0 1024705
14:00+9юз71577100 0.0 1021737
17:00+9юз6167659 0.0 1019676
20:00+6юз6178348 0.0 1019535